When you browse on this site, cookies collect data to enhance your experience and personalize the content and advertising you see.
Visit our Privacy Policy to learn more. By continuing to use the site, you agree to this use of cookies and data.
  • In Spain
  • List of Countries
  • For 7 days
  • Water Temperature
  • Satellite Maps
  • Weather Map
  • Weather Widgets
  • user-avatar
    Login

    Hourly Weather Kalat

    Today, 16 January, Wednesday

    Time Temperature Precipitation Wind Pressure Humidity
    00:00 -14°C° 0 mm 4 mps 469 mmHg 83%
    01:00 -14°C° 0 mm 4 mps 468 mmHg 83%
    02:00 -14°C° 0 mm 4 mps 468 mmHg 83%
    03:00 -14°C° 0.1 mm 4 mps 468 mmHg 83%
    04:00 -13°C° 0.1 mm 3 mps 468 mmHg 83%
    05:00 -15°C° 0 mm 3 mps 467 mmHg 82%
    06:00 -14°C° 0.1 mm 2 mps 467 mmHg 83%
    07:00 -13°C° 0.1 mm 2 mps 468 mmHg 84%
    08:00 -12°C° 0.1 mm 2 mps 468 mmHg 84%
    09:00 -12°C° 0.6 mm 2 mps 469 mmHg 85%
    10:00 -10°C° 0.6 mm 2 mps 470 mmHg 85%
    11:00 -9°C° 0 mm 2 mps 471 mmHg 85%
    12:00 -10°C° 0.4 mm 3 mps 471 mmHg 84%
    13:00 -10°C° 0.4 mm 3 mps 471 mmHg 82%
    14:00 -10°C° 0.4 mm 3 mps 471 mmHg 80%
    15:00 -13°C° 0 mm 3 mps 469 mmHg 80%
    16:00 -15°C° 0 mm 3 mps 468 mmHg 79%
    17:00 -17°C° 0 mm 2 mps 466 mmHg 81%
    18:00 -18°C° 0 mm 2 mps 465 mmHg 78%
    19:00 -20°C° 0 mm 2 mps 464 mmHg 75%
    20:00 -20°C° 0 mm 1 mps 463 mmHg 72%
    21:00 -20°C° 0 mm 1 mps 463 mmHg 64%
    22:00 -20°C° 0 mm 1 mps 463 mmHg 57%
    23:00 -20°C° 0 mm 1 mps 464 mmHg 49%

    Tomorrow, 17 January, Thursday

    Time Temperature Precipitation Wind Pressure Humidity
    00:00 -20°C° 0 mm 1 mps 464 mmHg 43%
    01:00 -23°C° 0 mm 2 mps 464 mmHg 37%
    02:00 -23°C° 0 mm 2 mps 463 mmHg 30%
    03:00 -23°C° 0 mm 2 mps 463 mmHg 28%
    04:00 -23°C° 0 mm 2 mps 463 mmHg 25%
    05:00 -23°C° 0 mm 2 mps 463 mmHg 23%
    06:00 -23°C° 0 mm 2 mps 463 mmHg 22%
    07:00 -23°C° 0 mm 2 mps 464 mmHg 21%
    08:00 -19°C° 0 mm 1 mps 464 mmHg 20%
    09:00 -16°C° 0 mm 1 mps 466 mmHg 26%
    10:00 -13°C° 0 mm 1 mps 468 mmHg 32%
    11:00 -9°C° 0 mm 1 mps 470 mmHg 38%
    12:00 -8°C° 0 mm 1 mps 470 mmHg 39%
    13:00 -7°C° 0 mm 1 mps 471 mmHg 39%
    14:00 -6°C° 0 mm 1 mps 471 mmHg 39%
    15:00 -8°C° 0 mm 1 mps 469 mmHg 41%
    16:00 -11°C° 0 mm 1 mps 467 mmHg 43%
    17:00 -13°C° 0 mm 1 mps 465 mmHg 45%
    18:00 -14°C° 0 mm 1 mps 466 mmHg 43%
    19:00 -16°C° 0 mm 2 mps 466 mmHg 41%
    20:00 -17°C° 0 mm 2 mps 466 mmHg 39%
    21:00 -17°C° 0 mm 3 mps 466 mmHg 39%
    22:00 -16°C° 0 mm 3 mps 467 mmHg 38%
    23:00 -16°C° 0 mm 3 mps 467 mmHg 38%

    Day after tomorrow, 18 January, Friday

    Time Temperature Precipitation Wind Pressure Humidity
    00:00 -16°C° 0 mm 3 mps 467 mmHg 36%
    01:00 -16°C° 0 mm 3 mps 467 mmHg 35%
    02:00 -16°C° 0 mm 3 mps 466 mmHg 34%
    03:00 -16°C° 0 mm 3 mps 466 mmHg 38%
    04:00 -17°C° 0 mm 4 mps 466 mmHg 41%
    05:00 -17°C° 0 mm 4 mps 466 mmHg 45%
    06:00 -16°C° 0.1 mm 4 mps 467 mmHg 55%
    07:00 -14°C° 0.1 mm 3 mps 467 mmHg 65%
    08:00 -14°C° 0.1 mm 3 mps 468 mmHg 76%
    09:00 -12°C° 0.3 mm 3 mps 469 mmHg 78%
    10:00 -11°C° 0.3 mm 4 mps 470 mmHg 80%
    11:00 -9°C° 0.3 mm 4 mps 471 mmHg 82%
    12:00 -9°C° 0.4 mm 4 mps 471 mmHg 82%
    13:00 -9°C° 0.4 mm 4 mps 471 mmHg 82%
    14:00 -8°C° 0.4 mm 4 mps 471 mmHg 83%
    15:00 -9°C° 0.4 mm 4 mps 470 mmHg 84%
    16:00 -10°C° 0.4 mm 4 mps 470 mmHg 85%
    17:00 -10°C° 0.4 mm 4 mps 470 mmHg 86%
    18:00 -10°C° 0.1 mm 3 mps 470 mmHg 86%
    19:00 -12°C° 0.1 mm 3 mps 470 mmHg 85%
    20:00 -12°C° 0.1 mm 3 mps 469 mmHg 84%
    21:00 -13°C° 0.2 mm 3 mps 469 mmHg 85%
    22:00 -13°C° 0.2 mm 3 mps 469 mmHg 85%
    23:00 -13°C° 0.2 mm 3 mps 470 mmHg 86%

    19 January, Saturday

    Time Temperature Precipitation Wind Pressure Humidity
    00:00 -13°C° 0.1 mm 3 mps 469 mmHg 86%
    01:00 -14°C° 0.1 mm 4 mps 469 mmHg 85%
    02:00 -14°C° 0.1 mm 4 mps 469 mmHg 85%
    03:00 -15°C° 0 mm 4 mps 469 mmHg 85%
    04:00 -15°C° 0 mm 3 mps 468 mmHg 85%
    05:00 -15°C° 0 mm 3 mps 467 mmHg 85%
    06:00 -16°C° 0 mm 3 mps 467 mmHg 84%
    07:00 -17°C° 0 mm 4 mps 467 mmHg 84%
    08:00 -17°C° 0 mm 4 mps 467 mmHg 84%
    09:00 -16°C° 0 mm 4 mps 469 mmHg 81%
    10:00 -14°C° 0 mm 4 mps 470 mmHg 78%
    11:00 -11°C° 0 mm 4 mps 471 mmHg 76%
    12:00 -10°C° 0.1 mm 4 mps 471 mmHg 75%
    13:00 -10°C° 0.1 mm 4 mps 470 mmHg 75%
    14:00 -10°C° 0.1 mm 4 mps 470 mmHg 75%
    15:00 -10°C° 0.2 mm 4 mps 470 mmHg 77%
    16:00 -10°C° 0.2 mm 3 mps 469 mmHg 79%
    17:00 -12°C° 0.2 mm 3 mps 468 mmHg 82%
    18:00 -13°C° 0.2 mm 3 mps 468 mmHg 82%
    19:00 -13°C° 0.2 mm 3 mps 468 mmHg 83%
    20:00 -15°C° 0.2 mm 4 mps 468 mmHg 84%
    21:00 -15°C° 0.1 mm 4 mps 468 mmHg 84%
    22:00 -16°C° 0.1 mm 4 mps 468 mmHg 84%
    23:00 -16°C° 0.1 mm 4 mps 468 mmHg 84%

    20 January, Sunday

    Time Temperature Precipitation Wind Pressure Humidity
    00:00 -16°C° 0.1 mm 4 mps 468 mmHg 84%
    01:00 -16°C° 0.1 mm 4 mps 468 mmHg 84%
    02:00 -16°C° 0.1 mm 4 mps 468 mmHg 85%
    03:00 -16°C° 0.1 mm 4 mps 468 mmHg 85%
    04:00 -16°C° 0.1 mm 4 mps 468 mmHg 85%
    05:00 -15°C° 0.1 mm 4 mps 468 mmHg 85%
    06:00 -15°C° 0.1 mm 4 mps 468 mmHg 85%
    07:00 -15°C° 0.1 mm 4 mps 468 mmHg 85%
    08:00 -15°C° 0.1 mm 4 mps 469 mmHg 85%
    09:00 -14°C° 0.2 mm 4 mps 469 mmHg 83%
    10:00 -12°C° 0.2 mm 4 mps 470 mmHg 82%
    11:00 -11°C° 0.2 mm 4 mps 470 mmHg 81%
    12:00 -11°C° 0.3 mm 4 mps 470 mmHg 80%
    13:00 -11°C° 0.3 mm 4 mps 470 mmHg 80%
    14:00 -11°C° 0.3 mm 4 mps 470 mmHg 80%
    15:00 -11°C° 0.4 mm 4 mps 469 mmHg 82%
    16:00 -12°C° 0.4 mm 3 mps 469 mmHg 84%
    17:00 -13°C° 0.4 mm 3 mps 468 mmHg 86%
    18:00 -13°C° 0.4 mm 3 mps 468 mmHg 86%
    19:00 -14°C° 0.4 mm 3 mps 468 mmHg 86%
    20:00 -14°C° 0.4 mm 2 mps 468 mmHg 87%
    21:00 -14°C° 0.3 mm 2 mps 468 mmHg 87%
    22:00 -14°C° 0.3 mm 2 mps 468 mmHg 88%
    23:00 -14°C° 0.3 mm 2 mps 468 mmHg 88%

    21 January, Monday

    Time Temperature Precipitation Wind Pressure Humidity
    00:00 -14°C° 0.3 mm 2 mps 468 mmHg 88%
    01:00 -15°C° 0.3 mm 2 mps 468 mmHg 88%
    02:00 -15°C° 0.3 mm 2 mps 468 mmHg 88%
    03:00 -15°C° 0.4 mm 2 mps 467 mmHg 89%
    04:00 -15°C° 0.4 mm 2 mps 467 mmHg 89%
    05:00 -13°C° 0.4 mm 1 mps 467 mmHg 90%
    06:00 -13°C° 0.4 mm 1 mps 467 mmHg 90%
    07:00 -15°C° 0.4 mm 2 mps 467 mmHg 90%
    08:00 -15°C° 0.4 mm 2 mps 468 mmHg 89%
    09:00 -14°C° 0.2 mm 2 mps 468 mmHg 85%
    10:00 -13°C° 0.2 mm 2 mps 469 mmHg 81%
    11:00 -13°C° 0.2 mm 3 mps 470 mmHg 77%
    12:00 -13°C° 0.3 mm 3 mps 469 mmHg 79%
    13:00 -12°C° 0.3 mm 2 mps 469 mmHg 80%
    14:00 -12°C° 0.3 mm 2 mps 469 mmHg 82%
    15:00 -12°C° 0.4 mm 2 mps 468 mmHg 84%
    16:00 -13°C° 0.4 mm 2 mps 468 mmHg 87%
    17:00 -13°C° 0.4 mm 2 mps 467 mmHg 90%
    18:00 -14°C° 0.2 mm 2 mps 467 mmHg 89%
    19:00 -15°C° 0.2 mm 2 mps 467 mmHg 88%
    20:00 -15°C° 0.2 mm 2 mps 466 mmHg 87%
    21:00 -17°C° 0.1 mm 2 mps 465 mmHg 86%
    22:00 -18°C° 0.1 mm 2 mps 464 mmHg 85%
    23:00 -19°C° 0.1 mm 2 mps 463 mmHg 84%
    Show more